Miscellaneous Local Product
Issued by NWS North Platte, NE

Home | Current Version | Previous Version | Graphics & Text | Print | Product List | Glossary On
Versions: 1 2 3 4 5 6 7 8 9 10 11 12 13 14 15 16 17 18 19 20 21 22 23 24 25 26 27 28 29 30 31 32 33 34 35 36 37 38 39 40 41 42 43 44 45 46 47 48 49 50
000
AXUS43 KLBF 250710
MISLBF


WESTERN AND NORTH CENTRAL NEBRASKA HOURLY WEATHER ROUNDUP
NATIONAL WEATHER SERVICE NORTH PLATTE NE
200 AM CDT SAT APR 25 2015

***STATIONS NOT REPORTING VARIABLES SUCH AS SKY/WEATHER OR
PRESSURE ARE PROVIDED BY THE NEBRASKA DEPARTMENT OF
ROADS...RAWS...AND APRS NETWORKS...AND ARE NOT UNDER
NATIONAL WEATHER SERVICE QUALITY CONTROL***

...OBSERVATIONS IN AND NEAR THE EASTERN PANHANDLE OF NEBRASKA...

CITY           SKY/WX    TMP DP  RH WIND       PRES   REMARKS
PINE RIDGE     PTCLDY    45  42  89 CALM      29.63S
CHADRON        PTCLDY    44  41  89 CALM      29.64R
ALLIANCE       PTCLDY    41  39  93 N6        29.62R
SIDNEY         MOCLDY    44  38  79 N8        29.64S
$$

...OBSERVATIONS IN NORTH CENTRAL NEBRASKA...

CITY           SKY/WX    TMP DP  RH WIND       PRES   REMARKS
VALENTINE      CLOUDY    58  44  60 E16G24    29.55R
THEDFORD       CLOUDY    54  50  87 CALM      29.57S
AINSWORTH      CLOUDY    55  47  76 E6        29.56R
O`NEILL        TSTM      54  51  92 E17       29.56F
ORD            CLOUDY    56  51  84 N6        29.50F
BROKEN BOW     CLOUDY    54  47  77 SE5       29.52R
$$

...OBSERVATIONS IN SOUTHWEST NEBRASKA AND FAR NORTHEAST COLORADO...

CITY           SKY/WX    TMP DP  RH WIND       PRES   REMARKS
WRAY           CLOUDY    49  42  76 CALM      29.63R
HOLYOKE        FAIR      52  41  66 NW6       29.62F
IMPERIAL       CLOUDY    50  43  77 W7        29.60R
OGALLALA       MOCLDY    51  46  82 N6        29.60R
MCCOOK         CLOUDY    54  47  77 N5        29.55R
LEXINGTON      CLOUDY    56  51  82 N5        29.52F
$$

...NORTH PLATTE AREA...

CITY           SKY/WX    TMP DP  RH WIND       PRES   REMARKS
$$

...SOME WEATHER OBSERVATIONS FROM AROUND THE REGION...

CITY           SKY/WX    TMP DP  RH WIND       PRES   REMARKS
DENVER         PTCLDY    42  32  67 S8        29.71S
LARAMIE        PTCLDY    34  29  82 SW12      29.76S WCI  25
CHEYENNE       CLEAR     42  32  67 W9        29.71S
SCOTTSBLUFF    PTCLDY    43  40  89 W6        29.64S
RAPID CITY     CLEAR     45  40  82 N10       29.63R
PIERRE         PTCLDY    48  43  82 NE16      29.59R
WINNER         FAIR      57  46  66 NW3       29.55R
SIOUX FALLS    RAIN      48  46  93 E14       29.64F FOG
OMAHA          TSTM      57  54  89 E7        29.50F
GRAND ISLAND   LGT RAIN  55  54  96 NE3       29.50R FOG
KANSAS CITY    CLOUDY    59  55  87 SE17      29.48F
WICHITA        LGT RAIN  63  60  90 S13       29.43F
HAYS           CLOUDY    54  46  76 W3        29.51F
LIBERAL        MOCLDY    52  43  71 W7        29.62F
GOODLAND       CLOUDY    50  42  74 NW14      29.62R
$$



USA.gov is the U.S. government's official web portal to all federal, state and local government web resources and services.